Location: Unnamed
(48.6007°N, 2.4808°E)
Time: 08:53:25
(UTC+01:00)

FENGYUN 1C DEB - Visible Passes

Search period start: 03 December 2023 00:00
Search period end: 13 December 2023 00:00
Orbit: 512 x 843 km, 98.6° (Epoch: 01 December)

Date Brightness Start Highest point End Pass type
(mag) Time Alt. Az. Time Alt. Az. Time Alt. Az.
03 Dec ? 04:43:49 10° NNE 04:44:20 13° NNE 04:44:20 13° NNE visible
03 Dec ? 06:22:02 10° NNW 06:22:42 12° NNW 06:22:42 12° NNW visible
04 Dec ? 05:18:46 10° N 05:19:36 15° N 05:19:36 15° N visible
05 Dec ? 04:16:24 10° NNE 04:16:26 10° NNE 04:16:26 10° NNE visible
05 Dec ? 05:53:55 10° N 05:54:47 14° N 05:54:47 14° N visible
06 Dec ? 04:50:59 10° NNE 04:51:33 13° NNE 04:51:33 13° NNE visible
06 Dec ? 06:29:21 10° NNW 06:29:53 12° NNW 06:29:53 12° NNW visible
07 Dec ? 05:25:47 10° N 05:26:35 14° N 05:26:35 14° N visible
08 Dec ? 04:23:08 10° NNE 04:23:12 10° NNE 04:23:12 10° NNE visible
08 Dec ? 06:00:45 10° N 06:01:32 14° N 06:01:32 14° N visible
09 Dec ? 04:57:33 10° NNE 04:58:05 13° NNE 04:58:05 13° NNE visible
09 Dec ? 06:36:04 10° NNW 06:36:24 11° NNW 06:36:24 11° NNW visible
10 Dec ? 05:32:09 10° N 05:32:54 14° N 05:32:54 14° N visible
11 Dec ? 04:29:15 10° NNE 04:29:19 10° NNE 04:29:19 10° NNE visible
11 Dec ? 06:06:58 10° N 06:07:38 13° N 06:07:38 13° N visible
12 Dec ? 05:03:30 10° NNE 05:03:59 13° N 05:03:59 13° N visible
12 Dec ? 06:42:09 10° NNW 06:42:17 10° NNW 06:42:17 10° NNW visible
